Погода в Танрыкулове

Россия / Курганская область     54°54′18″N   63°09′27″E
темп.,
°C
ветер,
м/с
пор.,
м/с
влажн.,
%
обл.,
%
осадки,
мм/ч
давл.,
гПа
погр.,
м
19 января, ср
ср1923:00−12ююз5119246 0.0 1019184
02:00−12ююз5119384 0.0 1020173
05:00−10юз51092100 0.0 1020189
08:00−10юз499396 0.0 1021168
11:00−9юз4892100 0.0 1021136
14:00−6юз4890100 0.0 1022169
17:00−8ююз3791100 0.0 1023110
20:00−9ююз379198 0.0 102399
20 января, чт
чт2023:00−11ююз4791100 0.0 1024104
02:00−11ююз3693100 0.0 102595
05:00−10ююз359388 0.0 102569
08:00−12ююз499267 0.0 1025119
11:00−10ююз4992100 0.0 1026163
14:00−9ююз41091100 0.0 1026232
17:00−11ю4894100 0.0 1026118
20:00−12ююз389499 0.0 1026111
21 января, пт
пт2123:00−16ююз359729 0.0 102758
02:00−18ююз359964 0.0 102741
05:00−20ююз3310073 0.0 102835
08:00−22ююз2210055 0.0 10289
11:00−17ююз22965 0.0 102949
14:00−12ююз229047 0.0 102875
17:00−19юз119663 0.0 10299
20:00−22юз229714 0.0 10309
22 января, сб
сб2223:00−23юз22975 0.0 10319
02:00−24юз22975 0.0 10329
05:00−24юз229729 0.0 10329
08:00−24зюз119840 0.0 10329
11:00−18ююз118893 0.0 103319
14:00−12ююз1179100 0.0 103343
17:00−16з1188100 0.0 10349
20:00−16ссв0088100 0.0 10349
23 января, вс
вс2323:00−18св0188100 0.0 10359
02:00−19ссв0089100 0.0 10369
05:00−18с1191100 0.0 103610
08:00−19ссв229499 0.0 103712
11:00−15св1293100 0.0 103839
14:00−10ссв239396 0.0 1038108
17:00−15с229757 0.0 10399
20:00−19ссв229913 0.0 10409